Location: Alfortville
(48.8058°N, 2.4204°E)
Time: 05:28:33
(UTC+00:00)

USA 229 DEB - Pass Details

Date: 01 June 2022
Orbit: 934 x 1278 km, 63.4° (Epoch: 24 May)

Event Time Altitude Azimuth Distance (km) Brightness Sun altitude
Rises 23:28:24 0° 316° (NW) 3,982 7.5 -18.9°
Reaches altitude 10° 23:31:07 10° 310° (NW) 3,067 6.7 -18.9°
Maximum altitude 23:38:05 46° 241° (WSW) 1,584 4.4 -19.0°
Enters shadow 23:41:41 29° 187° (S) 2,118 4.7 -19.0°
